G3ZSS Weather Reports


Display with metric or nautical units.
time (UTC)temp
F
wind
direction
speed
MPH
gust
MPH
rain 1hr
in
rain 24hr
in
rain mn
in
humidity
%
barometer
mb
20260510125004 51 324 9.0 15.0 0.05 0.13 0.13 88 1014.5
20260510124003 52 312 5.0 10.0 0.07 0.13 0.13 89 1014.9
20260510123004 52 312 3.0 6.0 0.08 0.12 0.12 89 1015.1
20260510121004 52 310 4.0 9.0 0.08 0.11 0.11 88 1015.3
20260510120004 51 293 2.0 6.0 0.07 0.09 0.09 88 1015.3
20260510114003 51 300 2.0 6.0 0.04 0.06 0.06 86 1015.4
20260510112004 52 306 4.0 8.0 0.03 0.04 0.04 85 1015.4
20260510111004 52 316 2.0 8.0 0.02 0.03 0.03 85 1015.7
20260510110004 52 348 2.0 5.0 0.02 0.02 0.02 85 1015.8
20260510105003 52 17 2.0 6.0 0.02 0.02 0.02 84 1016.0
20260510104003 52 31 2.0 3.0 0.02 0.02 0.02 84 1016.0
20260510103004 52 7 2.0 13.0 0.01 0.01 0.01 83 1015.6
20260510102003 52 303 5.0 12.0 0.01 0.01 0.01 83 1015.5
20260510100004 52 288 5.0 12.0 0.01 0.01 0.01 82 1015.6
20260510095004 53 286 3.0 10.0 0.00 0.00 0.00 81 1015.6
20260510094003 53 304 3.0 10.0 0.00 0.00 0.00 79 1015.8
20260510093004 53 317 4.0 8.0 0.00 0.00 0.00 77 1015.7
20260510092003 53 295 3.0 10.0 0.00 0.00 0.00 76 1015.7
20260510091004 53 306 3.0 12.0 0.00 0.00 0.00 77 1015.9
20260510090004 53 294 2.0 9.0 0.00 0.00 0.00 78 1015.8
20260510085003 53 314 2.0 8.0 0.00 0.00 0.00 77 1015.8
20260510083003 53 304 2.0 9.0 0.00 0.00 0.00 77 1015.9
20260510082004 53 9 1.0 9.0 0.00 0.00 0.00 77 1015.9
20260510081005 53 301 2.0 8.0 0.00 0.00 0.00 78 1015.9
20260510074003 53 308 3.0 12.0 0.00 0.00 0.00 78 1015.8
20260510072003 52 309 4.0 10.0 0.00 0.00 0.00 79 1015.9
20260510070003 52 320 2.0 9.0 0.00 0.00 0.00 81 1016.0
20260510065003 51 323 3.0 10.0 0.00 0.00 0.00 81 1015.9
20260510063003 51 298 2.0 9.0 0.00 0.00 0.00 82 1016.1
20260510061004 51 303 3.0 10.0 0.00 0.00 0.00 82 1016.2
20260510060004 51 284 2.0 6.0 0.00 0.00 0.00 82 1016.2
20260510055004 51 295 2.0 9.0 0.00 0.00 0.00 82 1016.2
20260510053005 50 308 3.0 6.0 0.00 0.00 0.00 82 1016.1
20260510051003 50 308 2.0 6.0 0.00 0.00 0.00 82 1016.0
20260510050004 50 271 2.0 7.0 0.00 0.00 0.00 82 1015.9
20260510045004 50 278 1.0 9.0 0.00 0.00 0.00 81 1016.0
20260510044004 51 321 5.0 10.0 0.00 0.00 0.00 81 1015.9
20260510043003 51 311 3.0 9.0 0.00 0.00 0.00 81 1015.9
20260510042004 51 288 3.0 9.0 0.00 0.00 0.00 80 1015.9
20260510041003 51 330 3.0 9.0 0.00 0.00 0.00 79 1015.9
20260510040004 51 299 5.0 10.0 0.00 0.00 0.00 78 1016.0
20260510035003 51 313 4.0 8.0 0.00 0.00 0.00 77 1016.0
20260510034004 52 291 4.0 10.0 0.00 0.00 0.00 75 1016.1
20260510033004 52 314 3.0 10.0 0.00 0.00 0.00 74 1016.2
20260510032004 52 305 2.0 7.0 0.00 0.00 0.00 74 1016.1
20260510030003 52 309 3.0 7.0 0.00 0.00 0.00 73 1016.2
20260510024003 53 300 1.0 6.0 0.00 0.00 0.00 72 1016.2
20260510022003 53 96 1.0 3.0 0.00 0.00 0.00 71 1016.1
20260510021004 53 338 2.0 5.0 0.00 0.00 0.00 71 1016.1
20260510020004 53 291 1.0 3.0 0.00 0.00 0.00 70 1016.0
20260510014003 53 280 1.0 7.0 0.00 0.00 0.00 68 1016.2
20260510013004 54 312 1.0 3.0 0.00 0.00 0.00 66 1016.2
20260510012004 54 291 1.0 3.0 0.00 0.00 0.00 66 1016.2
20260510010004 54 67 1.0 3.0 0.00 0.00 0.00 64 1016.3
20260510004004 54 16 1.0 10.0 0.00 0.00 0.00 63 1016.1
20260510003004 54 59 1.0 3.0 0.00 0.00 0.00 61 1016.2
20260510002003 55 37 0.0 5.0 0.00 0.00 0.00 60 1016.2
20260510001003 55 65 1.0 3.0 0.00 0.00 0.00 60 1016.4
20260510000004 55 344 1.0 3.0 0.00 0.00 0.00 60 1016.2
20260509235003 55 217 1.0 5.0 0.00 0.00 0.00 59 1016.0
20260509234004 56 28 1.0 8.0 0.00 0.00 0.00 58 1016.0
20260509233004 56 180 1.0 3.0 0.00 0.00 0.00 57 1016.1
20260509232004 56 64 2.0 8.0 0.00 0.00 0.00 57 1016.1
20260509231004 56 75 2.0 9.0 0.00 0.00 0.00 57 1016.1
20260509230003 56 73 2.0 7.0 0.00 0.00 0.00 56 1016.1
20260509225003 56 49 2.0 3.0 0.00 0.00 0.00 55 1016.1
20260509224004 56 75 2.0 8.0 0.00 0.00 0.00 54 1015.9
20260509223004 56 29 2.0 6.0 0.00 0.00 0.00 53 1015.8
20260509222004 57 51 2.0 7.0 0.00 0.00 0.00 52 1015.9
20260509221004 57 89 2.0 8.0 0.00 0.00 0.00 51 1015.9
20260509215004 57 41 2.0 5.0 0.00 0.00 0.00 50 1015.7
20260509213003 57 349 1.0 7.0 0.00 0.00 0.00 51 1015.8
20260509212004 58 47 2.0 3.0 0.00 0.00 0.00 49 1015.9
20260509211004 58 351 2.0 8.0 0.00 0.00 0.00 49 1015.9
20260509210004 58 69 2.0 7.0 0.00 0.00 0.00 50 1015.7
20260509205003 58 71 2.0 3.0 0.00 0.00 0.00 51 1015.7
20260509202004 59 269 2.0 8.0 0.00 0.00 0.00 50 1015.3
20260509201004 60 344 2.0 8.0 0.00 0.00 0.00 51 1015.2
20260509200004 60 306 2.0 3.0 0.00 0.00 0.00 52 1015.1
20260509195003 61 355 1.0 5.0 0.00 0.00 0.00 53 1015.0
20260509194004 61 259 1.0 3.0 0.00 0.00 0.00 55 1015.0
20260509193004 62 303 1.0 3.0 0.00 0.00 0.00 55 1015.1
20260509192004 63 305 1.0 3.0 0.00 0.00 0.00 55 1015.0
20260509191004 63 67 1.0 3.0 0.00 0.00 0.00 56 1015.1
20260509190004 64 84 2.0 3.0 0.00 0.00 0.00 55 1015.0
20260509185003 64 65 2.0 3.0 0.00 0.00 0.00 54 1014.9
20260509184004 65 68 1.0 2.0 0.00 0.00 0.00 53 1014.6
20260509183004 66 24 2.0 3.0 0.00 0.00 0.00 53 1014.7
20260509182004 66 310 1.0 2.0 0.00 0.00 0.00 53 1014.8
20260509181003 66 355 1.0 3.0 0.00 0.00 0.00 52 1014.8
20260509180004 67 55 1.0 3.0 0.00 0.00 0.00 52 1014.6
20260509175003 67 315 1.0 3.0 0.00 0.00 0.00 51 1014.5
20260509172004 69 59 3.0 5.0 0.00 0.00 0.00 50 1014.4
20260509171003 69 278 1.0 5.0 0.00 0.00 0.00 50 1014.3
20260509170004 69 67 3.0 5.0 0.00 0.00 0.00 50 1014.3
20260509165004 70 74 3.0 6.0 0.00 0.00 0.00 47 1014.4
20260509164004 71 311 1.0 6.0 0.00 0.00 0.00 49 1014.4
20260509162004 69 346 1.0 3.0 0.00 0.00 0.00 52 1014.5
20260509161004 69 80 2.0 5.0 0.00 0.00 0.00 52 1014.5
20260509160004 71 79 2.0 5.0 0.00 0.00 0.00 50 1014.3
20260509154003 71 64 1.0 7.0 0.00 0.00 0.00 50 1014.5
20260509153004 71 106 2.0 7.0 0.00 0.00 0.00 50 1014.6
20260509152004 71 159 2.0 3.0 0.00 0.00 0.00 52 1014.7
20260509151004 71 103 2.0 9.0 0.00 0.00 0.00 51 1014.9
20260509145003 70 166 3.0 7.0 0.00 0.00 0.00 53 1015.2
20260509144004 71 150 3.0 10.0 0.00 0.00 0.00 53 1015.2
20260509143004 71 127 2.0 9.0 0.00 0.00 0.00 52 1015.2
20260509142003 70 160 2.0 8.0 0.00 0.00 0.00 52 1015.1
20260509141003 71 64 2.0 8.0 0.00 0.00 0.00 46 1015.1
20260509135003 70 59 3.0 10.0 0.00 0.00 0.00 46 1015.1
20260509134003 71 79 3.0 9.0 0.00 0.00 0.00 43 1014.9
20260509132003 71 72 2.0 9.0 0.00 0.00 0.00 46 1015.0
20260509130004 71 60 2.0 7.0 0.00 0.00 0.00 46 1015.3